Location: Saint-Palais-sur-Mer
(45.6429°N, 1.0859°W)
Time: 09:43:06
(UTC+01:00)

Injun/Solrad 3 - Visible Passes

Search period start: 15 February 2026 00:00
Search period end: 25 February 2026 00:00
Orbit: 873 x 983 km, 66.8° (Epoch: 15 February)

Date Brightness Start Highest point End Pass type
(mag) Time Alt. Az. Time Alt. Az. Time Alt. Az.
15 Feb 8.5 20:30:35 10° NNW 20:36:15 38° NE 20:36:43 37° NE visible
15 Feb 9.4 22:17:01 10° NW 22:20:23 31° WNW 22:20:23 31° WNW visible
16 Feb 9.6 18:55:53 10° N 18:59:32 16° NNE 19:03:14 10° ENE visible
16 Feb 8.0 20:41:30 10° NNW 20:47:29 52° NE 20:48:01 51° ENE visible
16 Feb 9.7 22:28:21 10° NW 22:31:41 26° WNW 22:31:41 26° WNW visible
17 Feb 9.3 19:06:39 10° NNW 19:11:05 20° NNE 19:15:34 10° E visible
17 Feb 7.8 20:52:27 10° NNW 20:58:38 73° NE 20:59:25 65° ESE visible
17 Feb 10.0 22:39:57 10° WNW 22:43:05 20° W 22:43:05 20° W visible
18 Feb 9.0 19:17:28 10° NNW 19:22:32 26° NE 19:27:14 12° E visible
18 Feb 7.9 21:03:30 10° NW 21:09:40 80° WSW 21:10:55 59° SSE visible
18 Feb 10.4 22:52:09 10° WNW 22:54:36 14° W 22:54:36 14° W visible
19 Feb 8.6 19:28:19 10° NNW 19:33:53 34° NE 19:38:54 13° ESE visible
19 Feb 8.5 21:14:38 10° NW 21:20:39 55° WSW 21:22:36 40° SSW visible
20 Feb 8.2 19:39:12 10° NNW 19:45:08 47° NE 19:50:45 12° ESE visible
20 Feb 9.2 21:25:55 10° NW 21:31:32 37° WSW 21:34:28 24° SSW visible
21 Feb 7.9 19:50:10 10° NNW 19:56:18 66° NE 20:02:35 10° SE visible
21 Feb 9.8 21:37:25 10° NW 21:42:21 25° WSW 21:46:35 13° SSW visible
22 Feb 7.9 20:01:10 10° NNW 20:07:23 89° SW 20:13:44 10° SSE visible
22 Feb 10.4 21:49:20 10° WNW 21:53:04 17° WSW 21:56:50 10° SW visible
23 Feb 8.4 20:12:17 10° NW 20:18:23 62° WSW 20:24:37 10° SSE visible
24 Feb 9.1 20:23:30 10° NW 20:29:17 42° WSW 20:35:12 10° S visible
